Weather in Vinogradovka

Russia / Khabarovsk Krai     47°26′02″N   134°29′48″E
temp.,
°C
wind,
m/s
gust,
m/s
humid.,
%
clouds,
%
prec.,
mm/h
press.,
hPa
HPBL,
m
23 may, mon
mon2301:00+7ene369139 0.0 1011128
04:00+5ene369421 0.0 1011105
07:00+7ene348470 0.0 1011158
10:00+14ene2259100 0.0 1010579
13:00+19nw2347100 0.0 10091123
16:00+22ssw34383 0.0 10061840
19:00+19s475697 0.0 1007204
22:00+16se476193 0.0 1005141
24 may, tue
tue2401:00+19s8184799 0.0 1004760
04:00+16ssw81762100 0.1 1004600
07:00+15ssw51473100 0.0 1004502
10:00+19ssw71062100 0.0 1004743
13:00+23sw5753100 0.0 10031593
16:00+17nnw81183100 0.6 1004732
19:00+12w2496100 6.3 1006394
22:00+11sw359585 7.0 1008161
25 may, wed
wed2501:00+9sw369690 0.0 1009120
04:00+7sw239695 0.0 101066
07:00+8s1190100 0.0 1011181
10:00+8ne4588100 0.0 1012393
13:00+10nne4478100 0.0 1012535
16:00+15ne346015 0.0 10111140
19:00+14ne23676 0.0 1011998
22:00+9se22830 0.0 101218
26 may, thu
thu2601:00+8se11860 0.0 101210
04:00+7se11870 0.0 101110
07:00+10s12780 0.0 101184
10:00+17nnw015659 0.0 1010533
13:00+20n114642 0.0 1008947
16:00+22n11429 0.0 10061115
19:00+21nw00565 0.0 100521
22:00+14se226771 0.0 100613
27 may, fri
fri2701:00+13sse2271100 0.0 100612
04:00+12ssw226788 0.0 100512
07:00+15se116942 0.0 100559
10:00+20wsw1262100 0.0 1004632
13:00+22e2258100 0.0 1004823
16:00+22nne2260100 0.0 1002232
19:00+21ene4770100 0.2 1001241
22:00+14e459498 3.2 100476